Weather History for Beatrice, NE

Change the Weather History Date:

Tuesday, September 10, 2013

  Actual Average Record
Temperature  
Mean Temperature 83 °F -  
Max Temperature 96 °F 84 °F 100 °F (1955)
Min Temperature 70 °F 57 °F 41 °F (1959)
Cooling Degree Days 18    
Growing Degree Days 33 (Base 50)    
Moisture  
Dew Point 62 °F    
Average Humidity 52    
Maximum Humidity 90    
Minimum Humidity 31    
Precipitation  
Precipitation 0.00 in - - ()
Sea Level Pressure  
Sea Level Pressure 29.96 in    
Wind  
Wind Speed 10 mph (South)    
Max Wind Speed 18 mph    
Max Gust Speed 28 mph    
Visibility 10 miles    
Events      
Averages and records for this station are not official NWS values.
T = Trace of Precipitation, MM = Missing Value Source: NWS Daily Summary

Daily Weather History Graph

Daily Weather History Graph

Search for Another Location

Airport:

Trip Planner

Search our weather history database for the weather conditions in past years. The results will help you decide how hot, cold, wet, or windy it might be!

Date:

Astronomy

Sep. 10, 2013 Rise Set
Actual Time 7:03 AM CDT 7:43 PM CDT
Civil Twilight 6:35 AM CDT 8:11 PM CDT
Nautical Twilight 6:03 AM CDT 8:43 PM CDT
Astronomical Twilight 5:29 AM CDT 9:16 PM CDT
Moon 12:30 PM CDT (9/10) 10:47 PM CDT (9/10)
Length of Visible Light 13h 35m
Length of Day
12h 40m
Waxing Crescent, 28% of the Moon is Illuminated
Sep 10
Waxing Crescent
Sep 12
First Quarter
Sep 19
Full
Sep 26
Last Quarter
Oct 4
New

Hourly Weather History & Observations

Time (CDT) Temp. Heat Index Dew Point Humidity Pressure Visibility Wind Dir Wind Speed Gust Speed Precip Events Conditions
12:15 AM 79.2 °F - 57.9 °F 48% 29.89 in 10.0 mi South 12.7 mph - N/A   Clear
12:35 AM 79.0 °F - 58.3 °F 49% 29.90 in 10.0 mi SSW 13.8 mph - N/A   Clear
12:55 AM 78.8 °F - 59.0 °F 51% 29.90 in 10.0 mi South 11.5 mph - N/A   Clear
1:15 AM 77.9 °F - 59.5 °F 53% 29.90 in 10.0 mi South 11.5 mph - N/A   Clear
1:35 AM 77.2 °F - 59.9 °F 55% 29.91 in 10.0 mi South 9.2 mph - N/A   Clear
1:55 AM 76.6 °F - 59.9 °F 56% 29.91 in 10.0 mi South 8.1 mph - N/A   Clear
2:15 AM 76.3 °F - 60.3 °F 57% 29.92 in 10.0 mi South 4.6 mph - N/A   Clear
2:35 AM 75.6 °F - 60.4 °F 59% 29.92 in 10.0 mi SSE 8.1 mph - N/A   Clear
2:55 AM 75.9 °F - 60.6 °F 59% 29.93 in 10.0 mi SSE 5.8 mph - N/A   Clear
3:15 AM 74.3 °F - 60.8 °F 63% 29.92 in 10.0 mi ESE 4.6 mph - N/A   Clear
3:35 AM 72.7 °F - 62.2 °F 70% 29.92 in 10.0 mi ESE 3.5 mph - N/A   Clear
3:55 AM 72.7 °F - 62.4 °F 70% 29.93 in 10.0 mi SE 3.5 mph - N/A   Clear
4:15 AM 72.1 °F - 62.6 °F 72% 29.93 in 10.0 mi SSE 3.5 mph - N/A   Clear
4:35 AM 70.7 °F - 63.1 °F 77% 29.93 in 10.0 mi SSE 5.8 mph - N/A   Clear
4:55 AM 70.9 °F - 63.1 °F 76% 29.93 in 10.0 mi SSE 5.8 mph - N/A   Scattered Clouds
5:15 AM 70.9 °F - 63.1 °F 76% 29.93 in 10.0 mi SSE 5.8 mph - N/A   Mostly Cloudy
5:35 AM 71.4 °F - 62.8 °F 74% 29.93 in 10.0 mi SSE 5.8 mph - N/A   Scattered Clouds
5:55 AM 71.8 °F - 62.6 °F 73% 29.94 in 10.0 mi South 6.9 mph - N/A   Scattered Clouds
6:15 AM 72.1 °F - 61.9 °F 70% 29.94 in 10.0 mi South 8.1 mph - N/A   Clear
6:55 AM 72.5 °F - 61.3 °F 68% 29.94 in 10.0 mi SSE 6.9 mph - N/A   Scattered Clouds
7:15 AM 71.4 °F - 62.1 °F 72% 29.95 in 10.0 mi SSE 4.6 mph - N/A   Clear
7:35 AM 71.8 °F - 61.9 °F 71% 29.95 in 10.0 mi SSE 6.9 mph - N/A   Clear
7:55 AM 73.4 °F - 61.5 °F 66% 29.96 in 10.0 mi South 9.2 mph - N/A   Clear
8:15 AM 74.8 °F - 61.2 °F 62% 29.96 in 10.0 mi South 9.2 mph - N/A   Clear
8:35 AM 75.7 °F - 61.7 °F 62% 29.96 in 10.0 mi South 9.2 mph - N/A   Clear
8:55 AM 77.0 °F - 61.9 °F 59% 29.97 in 10.0 mi South 9.2 mph - N/A   Clear
9:15 AM 78.8 °F - 62.4 °F 57% 29.97 in 10.0 mi South 6.9 mph - N/A   Scattered Clouds
9:35 AM 79.0 °F - 61.5 °F 55% 29.97 in 10.0 mi SSW 11.5 mph - N/A   Scattered Clouds
9:55 AM 81.7 °F 82.6 °F 61.7 °F 51% 29.97 in 10.0 mi SSW 9.2 mph - N/A   Scattered Clouds
10:15 AM 81.3 °F 82.6 °F 63.3 °F 54% 29.98 in 10.0 mi SSW 9.2 mph - N/A   Scattered Clouds
10:35 AM 85.3 °F 85.7 °F 61.9 °F 45% 29.98 in 10.0 mi SW 13.8 mph 23.0 mph N/A   Clear
10:55 AM 86.0 °F 86.8 °F 62.8 °F 46% 29.99 in 10.0 mi SW 9.2 mph - N/A   Clear
11:15 AM 87.3 °F 87.7 °F 62.2 °F 43% 29.99 in 10.0 mi SW 15.0 mph 18.4 mph N/A   Clear
11:35 AM 87.3 °F 87.7 °F 62.4 °F 43% 30.00 in 10.0 mi SW 12.7 mph - N/A   Clear
11:55 AM 88.7 °F 89.1 °F 62.2 °F 41% 29.99 in 10.0 mi SW 11.5 mph 18.4 mph N/A   Scattered Clouds
12:15 PM 89.6 °F 90.4 °F 62.8 °F 41% 30.00 in 10.0 mi SSW 12.7 mph 18.4 mph N/A   Scattered Clouds
12:35 PM 90.9 °F 91.6 °F 63.0 °F 39% 29.99 in 10.0 mi SSW 16.1 mph 19.6 mph N/A   Clear
12:55 PM 91.6 °F 92.3 °F 62.8 °F 38% 29.99 in 10.0 mi SSW 15.0 mph - N/A   Clear
1:15 PM 92.3 °F 93.1 °F 62.2 °F 37% 29.99 in 10.0 mi SSW 16.1 mph - N/A   Clear
1:35 PM 93.4 °F 94.3 °F 62.8 °F 36% 29.99 in 10.0 mi SSW 17.3 mph 21.9 mph N/A   Clear
1:55 PM 94.1 °F 95.0 °F 62.6 °F 35% 29.99 in 10.0 mi SSW 16.1 mph 20.7 mph N/A   Clear
2:15 PM 94.3 °F 95.3 °F 62.4 °F 35% 29.97 in 10.0 mi SSW 18.4 mph 23.0 mph N/A   Clear
2:35 PM 94.8 °F 95.3 °F 61.9 °F 33% 29.97 in 10.0 mi SW 15.0 mph - N/A   Clear
2:55 PM 95.7 °F 96.3 °F 61.9 °F 32% 29.96 in 10.0 mi SSW 18.4 mph - N/A   Clear
3:15 PM 95.9 °F 96.6 °F 61.3 °F 32% 29.96 in 10.0 mi SW 16.1 mph 23.0 mph N/A   Clear
3:35 PM 95.7 °F 95.9 °F 60.8 °F 31% 29.95 in 10.0 mi SSW 18.4 mph 23.0 mph N/A   Clear
3:55 PM 96.3 °F 96.7 °F 61.0 °F 31% 29.95 in 10.0 mi SSW 18.4 mph 27.6 mph N/A   Clear
4:15 PM 95.7 °F 96.7 °F 62.1 °F 33% 29.95 in 10.0 mi SSW 17.3 mph 24.2 mph N/A   Clear
4:35 PM 94.1 °F 95.0 °F 62.6 °F 35% 29.94 in 10.0 mi South 15.0 mph 21.9 mph N/A   Scattered Clouds
4:55 PM 95.4 °F 95.7 °F 61.0 °F 32% 29.93 in 10.0 mi South 17.3 mph 25.3 mph N/A   Clear
5:15 PM 95.2 °F 95.5 °F 60.8 °F 32% 29.93 in 10.0 mi South 17.3 mph 23.0 mph N/A   Clear
5:35 PM 94.6 °F 94.7 °F 60.8 °F 32% 29.93 in 10.0 mi South 16.1 mph 20.7 mph N/A   Clear
5:55 PM 94.1 °F 94.2 °F 61.0 °F 33% 29.93 in 10.0 mi South 13.8 mph - N/A   Clear
6:15 PM 93.0 °F 93.0 °F 61.2 °F 34% 29.94 in 10.0 mi SSW 11.5 mph - N/A   Clear
6:35 PM 89.8 °F 90.0 °F 61.5 °F 39% 29.94 in 10.0 mi South 9.2 mph - N/A   Clear
6:55 PM 88.0 °F 88.1 °F 61.9 °F 41% 29.94 in 10.0 mi South 9.2 mph - N/A   Clear
7:15 PM 86.9 °F 87.5 °F 62.6 °F 44% 29.95 in 10.0 mi South 8.1 mph - N/A   Clear
7:35 PM 86.0 °F 86.6 °F 62.6 °F 45% 29.95 in 10.0 mi South 9.2 mph - N/A   Clear
7:55 PM 85.3 °F 86.1 °F 62.8 °F 47% 29.95 in 10.0 mi SW 6.9 mph - N/A   Clear
8:15 PM 84.4 °F 85.4 °F 63.5 °F 49% 29.97 in 10.0 mi Calm Calm - N/A   Scattered Clouds
8:35 PM 80.8 °F 82.6 °F 65.3 °F 59% 29.98 in 10.0 mi North 4.6 mph - N/A   Mostly Cloudy
8:55 PM 80.6 °F 82.3 °F 64.8 °F 58% 29.99 in 10.0 mi NNE 4.6 mph - N/A   Mostly Cloudy
9:15 PM 80.8 °F 82.6 °F 65.3 °F 59% 29.99 in 10.0 mi East 4.6 mph - N/A   Mostly Cloudy
9:35 PM 79.7 °F - 65.1 °F 61% 30.00 in 10.0 mi SE 4.6 mph - N/A   Scattered Clouds
9:55 PM 81.5 °F 83.1 °F 64.4 °F 56% 30.00 in 10.0 mi South 5.8 mph - N/A   Mostly Cloudy
10:15 PM 80.2 °F 82.2 °F 65.5 °F 61% 30.02 in 10.0 mi North 9.2 mph - N/A   Mostly Cloudy
10:35 PM 84.6 °F 85.2 °F 62.1 °F 47% 30.03 in 10.0 mi Calm Calm - N/A   Overcast
10:55 PM 79.7 °F - 66.7 °F 64% 30.06 in 10.0 mi North 5.8 mph - N/A   Overcast
11:15 PM 78.6 °F - 68.2 °F 70% 30.05 in 10.0 mi NE 4.6 mph - N/A   Overcast
11:35 PM 77.0 °F - 69.6 °F 78% 30.06 in 10.0 mi NNW 9.2 mph - N/A   Scattered Clouds
11:55 PM 74.8 °F - 71.6 °F 90% 30.06 in 10.0 mi North 6.9 mph - N/A   Scattered Clouds